Location: Asheville, NC
(35.6000°N, 82.5500°W)
Time: 13:08:48
(UTC-04:00)

XW-2B - Pass Details

Date: 11 January 2018
Orbit: 509 x 530 km, 97.5° (Epoch: 17 June)

Event Time Altitude Azimuth Distance (km) Brightness Sun altitude
Rises 06:11:45 0° 19° (NNE) 2,651 ? -17.6°
Reaches altitude 10° 06:13:57 10° 26° (NNE) 1,754 ? -17.2°
Maximum altitude 06:17:33 42° 99° (E) 744 ? -16.5°
Drops below altitude 10° 06:21:06 10° 171° (S) 1,730 ? -15.8°
Sets 06:23:15 0° 178° (S) 2,608 ? -15.4°
